Погода в Чаусах

Беларусь     53˚48′26″N   30˚58′24″E
темп.,
°C
ветер,
м/с
пор.,
м/с
влажн.,
%
обл.,
%
осадки,
мм/ч
давл.,
гПа
погр.,
м
6 декабря, вс
вс600:00−3˚ююв613843 0.0 1034469
03:00−3˚ююв612641 0.0 1035415
06:00−4˚юв613570 0.0 1035371
09:00−5˚юв612560 0.0 1036347
12:00−3˚юв612510 0.0 1037378
15:00−2˚юв612470 0.0 1037405
18:00−4˚юв512570 0.0 1037360
21:00−4˚юв612670 0.0 1037351
7 декабря, пн
пн700:00−5˚юв612710 0.0 1037422
03:00−5˚юв612700 0.0 1038438
06:00−6˚юв613700 0.0 1037465
09:00−6˚юв613700 0.0 1037460
12:00−5˚юв712620 0.0 1036499
15:00−4˚юв611570 0.0 1036519
18:00−5˚вюв612640 0.0 1035442
21:00−5˚вюв613630 0.0 1036478
8 декабря, вт
вт800:00−6˚юв613620 0.0 1036459
03:00−6˚вюв511650 0.0 1035420
06:00−6˚вюв511660 0.0 1035401
09:00−7˚вюв511670 0.0 1035359
12:00−5˚вюв611610 0.0 1034414
15:00−4˚вюв610570 0.0 1034433
18:00−5˚вюв613630 0.0 1033415
21:00−5˚вюв612610 0.0 1034415
9 декабря, ср
ср900:00−5˚вюв511560 0.0 1033407
03:00−6˚вюв510590 0.0 1034346
06:00−6˚вюв510620 0.0 1034323
09:00−6˚вюв510640 0.0 1033325
12:00−5˚вюв510580 0.0 1033383
15:00−4˚вюв5105737 0.0 1032436
18:00−5˚вюв6126652 0.0 1031447
21:00−5˚вюв5116861 0.0 1031511
10 декабря, чт
чт1000:00−5˚юв6116494 0.0 1031523
03:00−5˚юв5116697 0.0 1031491
06:00−5˚юв51070100 0.0 1030437
09:00−5˚вюв6117292 0.0 1030432
12:00−4˚юв6107487 0.0 1030436
15:00−2˚юв6107991 0.0 1030500
18:00−3˚юв6128099 0.0 1029472
21:00−3˚юв6128499 0.0 1029443